カタログに戻る

SL-8 R/B

運用中LEO
NORAD 6966·ROCKET BODY·🇷🇺 Russia

打ち上げ Dec 4, 1973 から Plesetsk Cosmodrome

Loading…

次のパス (今後24時間)

TLE

最新Source: Space-Track

元期: Sep 14, 2026, 11:08 UTC

1 06966U 73098B   26257.46455405  .00000097  00000-0  35581-4 0  9991
2 06966  74.0531  75.1832 0021733 278.0950  81.7742 14.44917297772353

AllMySatでSL-8 R/Bをリアルタイム追跡

Download on the App Store